EW5835 Weather Reports


time (UTC)temp
C
wind
direction
speed
KPH
gust
KPH
rain 1hr
cm
rain 24hr
cm
rain mn
cm
humidity
%
barometer
mb
20260510142758 17 23 0.0 3.2 0.00 2.13 0.97 78 1012.7
20260510142256 16 233 0.0 6.4 0.00 2.13 0.97 76 1012.7
20260510141800 16 238 0.0 0.0 0.00 2.18 0.97 78 1012.6
20260510141756 16 221 1.6 6.4 0.00 2.16 0.97 81 1012.6
20260510140755 16 230 0.0 0.0 0.00 2.18 0.97 83 1012.5
20260510140257 15 334 0.0 0.0 0.00 2.21 0.97 83 1012.5
20260510135756 13 355 0.0 0.0 0.00 2.21 0.97 83 1012.6
20260510135259 15 209 0.0 0.0 0.00 2.24 0.97 83 1012.5
20260510135255 15 336 0.0 0.0 0.00 2.24 0.97 83 1012.6
20260510134255 15 237 0.0 0.0 0.00 2.26 0.97 84 1012.6
20260510133755 15 272 0.0 0.0 0.00 2.26 0.97 86 1012.6
20260510133255 14 257 0.0 0.0 0.00 2.29 0.97 86 1012.6
20260510132755 14 233 0.0 0.0 0.00 2.29 0.97 86 1012.8
20260510132253 14 271 0.0 0.0 0.00 2.31 0.97 86 1012.8
20260510131755 14 292 0.0 0.0 0.00 2.31 0.97 88 1012.8
20260510131252 13 233 0.0 0.0 0.00 2.34 0.97 90 1012.9
20260510130759 13 334 0.0 0.0 0.00 2.36 0.97 93 1012.9
20260510130754 13 296 0.0 0.0 0.00 2.36 0.97 91 1012.9
20260510130253 13 235 0.0 0.0 0.00 2.36 0.97 92 1013.0
20260510125252 13 206 0.0 0.0 0.00 2.36 0.97 94 1012.9
20260510124753 13 61 0.0 0.0 0.00 2.36 0.97 95 1012.9
20260510124254 13 125 0.0 0.0 0.00 2.36 0.97 96 1012.9
20260510123753 13 14 0.0 0.0 0.00 2.39 0.97 96 1012.9
20260510123252 12 330 0.0 0.0 0.00 2.39 0.97 96 1012.9
20260510122758 12 272 0.0 0.0 0.97 2.39 0.97 97 1012.6
20260510122752 12 219 0.0 0.0 0.00 2.39 0.97 96 1012.9
20260510122252 12 247 0.0 0.0 0.00 2.39 0.97 96 1012.7
20260510121752 12 231 0.0 0.0 0.00 2.39 0.97 97 1012.7
20260510120758 11 4 0.0 0.0 0.97 2.39 0.97 97 1012.5
20260510120753 11 31 0.0 0.0 0.97 2.39 0.97 97 1012.4
20260510115751 11 106 0.0 0.0 0.97 2.39 0.97 97 1012.5
20260510115255 11 80 0.0 0.0 0.97 2.39 0.97 97 1012.3
20260510115251 11 85 0.0 0.0 0.97 2.39 0.97 97 1012.4
20260510114904 11 89 0.0 0.0 0.97 2.39 0.97 98 1012.2
20260510113750 11 354 0.0 0.0 0.97 2.39 0.97 98 1012.2
20260510113250 11 103 0.0 0.0 0.97 2.39 0.97 98 1012.2
20260510112751 11 103 0.0 0.0 0.97 2.39 0.97 98 1012.2
20260510112253 40 255 0.0 0.0 0.97 2.39 0.97 100 1012.2
20260510112249 10 85 0.0 0.0 0.97 2.39 0.97 98 1012.2
20260510111905 -17 0.0 0.0 0.00 1.42 0.00 1012.1
20260510111251 -17 0.0 0.0 0.00 1.42 0.00 1012.2
20260510110749 -17 0.0 0.0 0.00 1.42 0.00 1012.2
20260510110355 -17 0.0 0.0 0.00 1.45 0.00 1012.1
20260510105247 -17 337 0.0 0.0 0.00 1.45 0.00 1012.1
20260510104746 10 337 0.0 0.0 0.00 1.45 0.00 98 1012.2
20260510104248 10 333 0.0 0.0 0.00 1.47 0.00 98 1012.1
20260510104244 10 334 0.0 0.0 0.00 1.47 0.00 98 1012.2
20260510103244 10 334 0.0 0.0 0.00 1.47 0.00 98 1012.1
20260510102745 10 307 0.0 0.0 0.00 1.47 0.00 98 1012.0
20260510102249 10 309 0.0 0.0 0.00 1.47 0.00 97 1011.9
20260510102245 10 309 0.0 0.0 0.00 1.47 0.00 97 1012.0
20260510101855 9 310 0.0 0.0 0.00 1.47 0.00 97 1011.9
20260510100743 9 310 0.0 0.0 0.00 1.47 0.00 97 1011.8
20260510100244 9 309 0.0 0.0 0.00 1.47 0.00 97 1011.9
20260510095747 9 309 0.0 0.0 0.00 1.50 0.00 97 1011.7
20260510095743 9 309 0.0 0.0 0.00 1.47 0.00 97 1011.8
20260510094743 9 309 0.0 0.0 0.00 1.50 0.00 97 1011.7
20260510094243 9 310 0.0 0.0 0.00 1.52 0.00 97 1011.6
20260510093743 9 309 0.0 0.0 0.00 1.52 0.00 97 1011.6
20260510093245 9 309 0.0 0.0 0.00 1.52 0.00 97 1011.3
20260510092742 9 309 0.0 0.0 0.00 1.55 0.00 97 1011.3
20260510092240 9 310 0.0 0.0 0.00 1.55 0.00 97 1011.2
20260510091741 9 307 0.0 0.0 0.00 1.55 0.00 97 1011.1
20260510091242 9 279 0.0 0.0 0.00 1.55 0.00 97 1011.1
20260510090740 9 262 0.0 0.0 0.00 1.57 0.00 97 1010.9
20260510090239 9 262 0.0 0.0 0.00 1.60 0.00 97 1010.8
20260510085739 9 262 0.0 0.0 0.00 1.60 0.00 97 1010.9
20260510085245 9 334 0.0 0.0 0.00 1.65 0.00 97 1011.0
20260510085241 9 334 0.0 0.0 0.00 1.63 0.00 97 1011.0
20260510084239 9 334 0.0 0.0 0.00 1.65 0.00 97 1011.0
20260510083739 9 334 0.0 0.0 0.00 1.65 0.00 97 1010.8
20260510083239 9 334 0.0 0.0 0.00 1.68 0.00 97 1010.9
20260510082739 9 334 0.0 0.0 0.00 1.68 0.00 97 1010.8
20260510082238 9 334 0.0 0.0 0.00 1.68 0.00 97 1010.8
20260510081742 9 334 0.0 0.0 0.00 1.73 0.00 97 1010.7
20260510081738 9 334 0.0 0.0 0.00 1.70 0.00 97 1010.8
20260510080737 -17 244 0.0 0.0 0.00 1.73 0.00 1010.8
20260510080241 9 244 0.0 0.0 0.00 1.80 0.00 97 1010.8
20260510080237 9 244 0.0 0.0 0.00 1.75 0.00 97 1010.7
20260510075850 9 244 0.0 0.0 0.00 1.80 0.00 97 1011.1
20260510074736 9 244 0.0 0.0 0.00 1.83 0.00 97 1011.0
20260510074236 9 244 0.0 0.0 0.00 1.85 0.00 97 1011.0
20260510073740 9 244 0.0 0.0 0.00 1.88 0.00 97 1011.1
20260510073736 9 244 0.0 0.0 0.00 1.85 0.00 97 1011.1
20260510072735 9 244 0.0 0.0 0.00 1.93 0.00 97 1011.1
20260510072243 9 244 0.0 0.0 0.00 2.01 0.00 97 1011.0
20260510072236 9 244 0.0 0.0 0.00 1.96 0.00 97 1011.2
20260510071733 9 244 0.0 0.0 0.00 1.98 0.00 97 1011.2
20260510070734 9 244 0.0 0.0 0.00 2.03 0.00 97 1011.2
20260510070234 10 244 0.0 0.0 0.00 2.06 0.00 97 1011.2
20260510065737 -17 0.0 0.0 0.00 2.13 0.00 1011.3
20260510065733 10 244 0.0 0.0 0.00 2.08 0.00 97 1011.3
20260510064733 10 244 0.0 0.0 0.00 2.21 0.00 97 1011.3
20260510064235 10 244 0.0 0.0 0.00 2.24 0.00 97 1011.6
20260510064231 10 244 0.0 0.0 0.00 2.24 0.00 97 1011.6
20260510063231 10 254 0.0 0.0 0.00 2.24 0.00 97 1011.8
20260510062730 10 255 0.0 0.0 0.00 2.24 0.00 97 1011.8
20260510062231 10 255 0.0 0.0 0.00 2.24 0.00 97 1011.8
20260510061730 -17 0.0 0.0 0.00 2.24 0.00 1011.8
20260510061234 9 312 0.0 0.0 0.00 2.24 0.00 97 1011.6
20260510061229 10 252 0.0 0.0 0.00 2.24 0.00 97 1011.8
20260510060729 10 252 0.0 0.0 0.00 2.24 0.00 97 1011.7
20260510055733 9 279 0.0 0.0 0.00 2.24 0.00 97 1011.5
20260510055729 9 312 0.0 0.0 0.00 2.24 0.00 97 1011.3
20260510054728 9 279 0.0 0.0 0.00 2.24 0.00 97 1011.6
20260510054228 9 268 0.0 0.0 0.00 2.24 0.00 97 1011.3
20260510053728 10 268 0.0 0.0 0.00 2.24 0.00 97 1011.3
20260510053229 10 268 0.0 0.0 0.00 2.24 0.00 97 1011.3
20260510052726 10 268 0.0 0.0 0.00 2.24 0.00 97 1011.2
20260510052231 10 259 0.0 0.0 0.00 2.24 0.00 96 1011.2
20260510052226 10 259 0.0 0.0 0.00 2.24 0.00 97 1011.2
20260510051228 10 259 0.0 0.0 0.00 2.24 0.00 96 1011.2
20260510050727 10 259 0.0 0.0 0.00 2.24 0.00 96 1011.3
20260510050226 10 259 0.0 0.0 0.00 2.24 0.00 96 1011.3
20260510045726 10 259 0.0 0.0 0.00 2.24 0.00 96 1011.3
20260510045225 10 259 0.0 0.0 0.00 2.24 0.00 96 1011.2
20260510044729 10 185 0.0 0.0 0.00 2.24 0.00 97 1011.3
20260510044725 10 240 0.0 0.0 0.00 2.24 0.00 97 1011.2
20260510043726 10 185 0.0 0.0 0.00 2.24 0.00 97 1011.2
20260510043225 10 185 0.0 0.0 0.00 2.24 0.00 96 1011.2
20260510042728 10 185 0.0 0.0 0.00 2.24 0.00 96 1011.1
20260510042724 10 185 0.0 0.0 0.00 2.24 0.00 96 1011.1
20260510041726 10 185 0.0 0.0 0.00 2.24 0.00 96 1011.1
20260510041225 10 185 0.0 0.0 0.00 2.24 0.00 96 1011.1
20260510040725 -17 0.0 0.0 0.00 2.24 0.00 1011.1
20260510040224 -17 0.0 0.0 0.00 2.24 0.00 1011.1
20260510035723 10 154 0.0 0.0 0.00 2.24 2.21 96 1011.0
20260510035222 10 154 0.0 0.0 0.00 2.24 2.21 96 1011.0
20260510034721 10 154 0.0 0.0 0.00 2.24 2.21 96 1010.8
20260510034221 10 154 0.0 0.0 0.00 2.24 2.21 96 1010.8
20260510033722 10 154 0.0 0.0 0.00 2.24 2.21 96 1010.9
20260510033221 10 154 0.0 0.0 0.00 2.24 2.21 96 1010.9
20260510032727 10 154 0.0 0.0 0.00 2.24 2.21 96 1010.9
20260510032721 10 154 0.0 0.0 0.00 2.24 2.21 96 1011.0
20260510031721 10 154 0.0 0.0 0.00 2.24 2.21 96 1010.9
20260510031220 10 154 0.0 0.0 0.00 2.24 2.21 96 1011.0
20260510030721 10 259 0.0 0.0 0.00 2.24 2.21 96 1011.1
20260510030219 10 259 0.0 0.0 0.00 2.24 2.21 96 1011.1
20260510025720 10 259 0.0 0.0 0.00 2.24 2.21 96 1011.1
20260510025220 10 259 0.0 0.0 0.00 2.24 2.21 96 1011.0
20260510024718 10 259 0.0 0.0 0.00 2.24 2.21 96 1011.0
20260510024222 10 259 0.0 0.0 0.00 2.24 2.21 96 1011.0
20260510024218 10 259 0.0 0.0 0.00 2.24 2.21 96 1011.0
20260510023218 10 259 0.0 0.0 0.00 2.24 2.21 96 1011.0
20260510022718 10 259 0.0 0.0 0.00 2.24 2.21 96 1011.0
20260510022219 10 259 0.0 0.0 0.00 2.24 2.21 96 1010.8
20260510021718 10 258 0.0 0.0 0.00 2.24 2.21 96 1010.7
20260510021218 10 259 0.0 0.0 0.00 2.24 2.21 96 1010.8
20260510020722 10 259 0.0 0.0 0.00 2.24 2.21 96 1010.8
20260510020718 10 259 0.0 0.0 0.00 2.24 2.21 96 1010.7
20260510015722 10 259 0.0 0.0 0.00 2.24 2.21 96 1010.6
20260510015717 10 259 0.0 0.0 0.00 2.24 2.21 96 1010.6
20260510014717 10 259 0.0 0.0 0.00 2.24 2.21 96 1010.6
20260510014216 10 259 0.0 0.0 0.00 2.24 2.21 95 1010.6
20260510013716 10 259 0.0 0.0 0.00 2.24 2.21 95 1010.6
20260510013217 10 259 0.0 0.0 0.00 2.24 2.21 95 1010.7
20260510012716 10 259 0.0 0.0 0.00 2.24 2.21 95 1010.7
20260510012216 10 259 0.0 0.0 0.00 2.24 2.21 95 1010.8
20260510011719 10 340 0.0 0.0 0.00 2.24 2.21 95 1010.7
20260510011715 10 254 0.0 0.0 0.00 2.24 2.21 95 1010.8
20260510010723 11 340 0.0 0.0 0.00 2.24 2.21 94 1010.5
20260510010715 11 340 0.0 0.0 0.00 2.24 2.21 95 1010.7
20260510010216 11 340 0.0 0.0 0.00 2.24 2.21 95 1010.6
20260510005214 11 340 0.0 0.0 0.00 2.24 2.21 94 1010.5
20260510004713 11 340 0.0 0.0 0.00 2.24 2.21 94 1010.4
20260510004214 11 340 0.0 0.0 0.00 2.24 2.21 94 1010.4
20260510003713 11 340 0.0 0.0 0.00 2.24 2.21 94 1010.3
20260510003213 11 340 0.0 0.0 0.00 2.24 2.21 94 1010.1
20260510002712 11 340 0.0 0.0 0.00 2.24 2.21 93 1010.1
20260510002213 11 340 0.0 0.0 0.00 2.24 2.21 93 1009.9
20260510001714 11 340 0.0 0.0 0.00 2.24 2.21 93 1010.0
20260510001212 11 340 0.0 0.0 0.00 2.24 2.21 93 1010.0
20260510000713 11 340 0.0 0.0 0.00 2.24 2.21 93 1010.0
20260510000212 11 340 0.0 0.0 0.00 2.24 2.21 93 1010.1
20260509235712 11 341 0.0 0.0 0.00 2.24 2.21 92 1010.0
20260509235210 12 338 0.0 0.0 0.00 2.24 2.21 92 1009.9
20260509234712 12 338 0.0 0.0 0.00 2.24 2.21 92 1009.9
20260509234211 12 338 0.0 0.0 0.00 2.24 2.21 91 1009.7
20260509233711 -17 0.0 0.0 0.00 2.24 2.21 1009.5
20260509233211 12 338 0.0 0.0 0.00 2.24 2.21 91 1009.4
20260509232710 12 338 0.0 0.0 0.00 2.24 2.21 91 1009.4
20260509232209 12 338 0.0 0.0 0.00 2.24 2.21 91 1009.4
20260509231709 12 338 0.0 0.0 0.00 2.24 2.21 90 1009.3
20260509231209 12 338 0.0 0.0 0.00 2.24 2.21 90 1009.3
20260509230709 12 338 0.0 0.0 0.00 2.24 2.21 90 1009.3
20260509230209 12 217 0.0 0.0 0.00 2.24 2.21 90 1009.2
20260509225708 12 240 0.0 0.0 0.00 2.24 2.21 90 1009.2
20260509225208 12 111 0.0 0.0 0.00 2.24 2.21 90 1009.2
20260509224712 -17 0.0 0.0 0.00 2.24 2.21 1009.4
20260509224708 12 140 0.0 0.0 0.00 2.24 2.21 90 1009.4
20260509223712 13 288 0.0 0.0 0.00 2.24 2.21 91 1009.6
20260509223707 13 288 0.0 0.0 0.00 2.24 2.21 91 1009.6
20260509222706 13 288 0.0 0.0 0.00 2.24 2.21 91 1009.5
20260509222206 13 288 0.0 0.0 0.00 2.24 2.21 91 1009.5
20260509221705 13 290 0.0 0.0 0.00 2.24 2.21 91 1009.5
20260509221205 13 320 0.0 0.0 0.00 2.24 2.21 93 1009.4
20260509220707 12 261 0.0 0.0 0.00 2.24 2.21 94 1009.4
20260509220205 -17 0.0 0.0 0.00 2.24 2.21 1009.5
20260509215704 12 228 0.0 0.0 0.00 2.24 2.21 94 1009.5
20260509215204 12 228 0.0 0.0 0.00 2.24 2.21 94 1009.6
20260509214702 12 193 0.0 0.0 0.00 2.24 2.21 94 1009.6
20260509214205 12 125 0.0 0.0 0.00 2.24 2.21 94 1009.7
20260509213704 12 230 0.0 0.0 0.00 2.24 2.21 94 1009.7
20260509213204 12 230 0.0 0.0 0.00 2.24 2.21 95 1009.8
20260509212709 12 330 0.0 0.0 0.03 2.24 2.21 96 1009.8
20260509212704 12 341 0.0 0.0 0.03 2.24 2.21 95 1009.7
20260509211706 -17 0.0 0.0 0.03 2.24 2.21 1010.0
20260509211702 12 330 0.0 0.0 0.03 2.24 2.21 96 1009.9
20260509210700 -17 0.0 0.0 0.03 2.24 2.21 1010.0
20260509210159 12 251 0.0 0.0 0.05 2.24 2.21 96 1010.0
20260509205703 11 251 0.0 0.0 0.08 2.24 2.21 96 1010.2
20260509205658 12 251 0.0 0.0 0.05 2.24 2.21 96 1010.1
20260509204658 11 251 0.0 0.0 0.08 2.24 2.21 96 1010.1
20260509204158 11 245 0.0 0.0 0.10 2.24 2.21 96 1010.2
20260509203659 11 245 0.0 0.0 0.10 2.24 2.21 96 1010.2
20260509203158 11 245 0.0 0.0 0.10 2.24 2.21 96 1010.3
20260509202658 11 345 0.0 0.0 0.10 2.21 2.18 96 1010.3
20260509202157 11 8 0.0 0.0 0.10 2.21 2.18 96 1010.4
20260509201656 11 59 0.0 0.0 0.13 2.21 2.18 96 1010.3
20260509201156 11 54 0.0 0.0 0.18 2.21 2.18 96 1010.5
20260509200656 11 54 0.0 0.0 0.18 2.21 2.18 96 1010.6
20260509200157 11 54 0.0 0.0 0.15 2.18 2.16 96 1010.6
20260509195656 11 54 0.0 0.0 0.15 2.18 2.16 96 1010.8
20260509195156 11 54 0.0 0.0 0.13 2.16 2.13 96 1010.9
20260509194656 11 51 0.0 0.0 0.13 2.16 2.13 96 1010.9
20260509194201 10 106 0.0 0.0 0.13 2.13 2.11 96 1011.1
20260509194155 11 104 0.0 0.0 0.10 2.13 2.11 96 1011.0
20260509193656 10 87 0.0 0.0 0.13 2.13 2.11 96 1011.0
20260509192656 10 92 0.0 0.0 0.13 2.11 2.08 96 1011.2
20260509192154 10 92 0.0 0.0 0.18 2.11 2.08 96 1011.3
20260509191654 10 93 0.0 0.0 0.15 2.08 2.06 96 1011.2
20260509191155 -17 0.0 0.0 0.10 2.03 2.01 1011.2
20260509190653 -17 0.0 0.0 0.15 2.03 2.01 1011.1
20260509190153 -17 0.0 0.0 0.15 2.03 2.01 1011.3
20260509185652 10 118 0.0 0.0 0.18 2.03 2.01 96 1011.3
20260509185157 10 96 0.0 0.0 0.25 2.03 2.01 96 1011.6
20260509185152 10 118 0.0 0.0 0.20 2.03 2.01 96 1011.3
20260509184651 10 131 0.0 0.0 0.23 2.03 2.01 96 1011.6
20260509183650 10 94 0.0 0.0 0.25 2.01 1.98 96 1011.7
20260509183151 10 83 0.0 0.0 0.30 2.01 1.98 96 1011.6
20260509182652 10 120 0.0 0.0 0.30 1.98 1.96 96 1011.5
20260509182150 -17 0.0 0.0 0.25 1.93 1.91 1011.6
20260509181649 10 94 0.0 0.0 0.28 1.93 1.91 96 1011.5
20260509181148 10 94 0.0 0.0 0.30 1.93 1.91 96 1011.5
20260509180649 10 118 0.0 0.0 0.28 1.88 1.88 96 1011.5
20260509180150 10 83 0.0 0.0 0.30 1.88 1.85 96 1011.3
20260509175648 9 86 0.0 0.0 0.28 1.85 1.83 96 1011.2
20260509175148 9 96 0.0 0.0 0.28 1.83 1.80 96 1011.3
20260509174646 9 93 0.0 0.0 0.25 1.80 1.78 95 1011.2
20260509174148 9 87 0.0 0.0 0.25 1.78 1.75 95 1011.2
20260509173648 9 89 0.0 0.0 0.23 1.75 1.73 95 1011.3
20260509173146 9 87 0.0 0.0 0.20 1.70 1.70 95 1011.2
20260509172648 9 87 0.0 0.0 0.18 1.68 1.65 95 1011.2
20260509172147 9 87 0.0 0.0 0.23 1.68 1.65 95 1011.2
20260509171646 9 87 0.0 0.0 0.20 1.65 1.63 95 1011.2
20260509171152 9 87 0.0 0.0 0.15 1.60 1.57 95 1011.3
20260509171146 9 87 0.0 0.0 0.18 1.63 1.60 95 1011.3
20260509170146 9 96 0.0 0.0 0.15 1.57 1.55 95 1011.3
20260509165646 9 97 0.0 0.0 0.18 1.57 1.55 95 1011.3
20260509165146 9 96 0.0 0.0 0.15 1.55 1.52 95 1011.3
20260509164645 9 87 0.0 0.0 0.18 1.55 1.52 95 1011.5
20260509164149 9 100 0.0 0.0 0.20 1.52 1.50 95 1011.7
20260509164144 9 100 0.0 0.0 0.20 1.52 1.50 95 1011.7
20260509163145 9 89 0.0 0.0 0.18 1.50 1.47 95 1011.7
20260509162643 9 104 0.0 0.0 0.20 1.50 1.47 95 1011.8
20260509162145 9 266 0.0 0.0 0.18 1.45 1.42 95 1011.9
20260509161643 9 266 0.0 0.0 0.20 1.45 1.42 95 1011.9
20260509161142 9 266 0.0 0.0 0.20 1.45 1.42 95 1012.0
20260509160642 9 266 0.0 0.0 0.23 1.45 1.42 95 1012.1
20260509160141 9 266 0.0 0.0 0.23 1.42 1.40 95 1012.2
20260509155645 9 220 0.0 0.0 0.23 1.40 1.37 95 1012.2
20260509155142 9 220 0.0 0.0 0.23 1.40 1.37 95 1012.1
20260509154642 9 219 0.0 0.0 0.23 1.37 1.35 95 1012.2
20260509154142 9 254 0.0 0.0 0.20 1.32 1.30 95 1012.2
20260509153640 9 254 0.0 0.0 0.23 1.32 1.30 95 1012.2
20260509153146 8 254 0.0 0.0 0.23 1.30 1.27 95 1012.3
20260509153142 8 254 0.0 0.0 0.23 1.32 1.30 95 1012.3
20260509152146 8 104 0.0 0.0 0.20 1.22 1.19 96 1012.5
20260509152139 8 259 0.0 0.0 0.23 1.27 1.24 95 1012.5
20260509151640 8 248 0.0 0.0 0.20 1.24 1.22 95 1012.5
20260509151139 8 248 0.0 85.3 0.23 1.24 1.22 95 1012.4
20260509150748 8 104 0.0 0.0 0.20 1.19 1.17 96 1012.5
20260509145639 8 104 0.0 0.0 0.18 1.17 1.14 96 1012.7
20260509145138 8 104 0.0 0.0 0.20 1.17 1.14 96 1012.6
20260509144648 8 103 0.0 0.0 0.18 1.12 1.09 96 1012.7
20260509144640 8 103 0.0 0.0 0.20 1.14 1.12 96 1012.6
20260509144150 8 103 0.0 0.0 0.18 1.12 1.09 96 1012.7
20260509143637 8 103 0.0 0.0 0.15 1.09 1.09 96 1012.7
20260509143138 8 103 0.0 0.0 0.18 1.09 1.07 96 1012.6